1536217200.9,46459,17.94,73780.5,10.79,-15.71,-22.37,0,*4E
1536217202.18,46460,17.88,73778.3,10.75,-16.13,-23.03,0,*49
1536217203.43,46461,17.94,73782.0,10.73,-16.69,-23.65,0,*43
1536217204.68,46462,17.88,73778.5,10.73,-17.17,-23.99,0,*4B
1536217205.91,46463,17.94,73782.0,10.73,-16.65,-23.43,0,*49
1536217207.16,46464,17.94,73780.3,10.71,-16.79,-23.53,0,*40
1536217208.38,46465,17.94,73780.0,10.69,-16.79,-23.65,0,*4D
1536217209.63,46466,17.88,73778.0,10.67,-16.51,-23.23,0,*48
1536217210.85,46467,17.94,73780.0,10.67,-16.93,-23.69,0,*49
1536217212.07,46468,17.88,73778.5,10.63,-17.03,-23.79,0,*4B
1536217213.3,46469,17.94,73778.8,10.63,-17.11,-23.75,0,*45
1536217214.52,46470,17.88,73778.3,10.59,-17.59,-24.35,0,*4B
1536217215.78,46471,17.94,73782.0,10.59,-17.59,-24.21,0,*4F
1536217216.98,46472,17.88,73778.5,10.59,-17.73,-24.35,0,*41
1536217218.23,46473,17.94,73782.0,10.57,-17.83,-24.41,0,*42
1536217219.48,46474,17.94,73782.3,10.55,-18.01,-24.83,0,*4C
1536217220.71,46475,17.88,73776.3,10.53,-18.21,-24.93,0,*48
1536217221.91,46476,17.88,73776.0,10.51,-18.21,-24.77,0,*43
1536217223.11,46477,17.94,73780.5,10.51,-18.07,-24.51,0,*42
1536217224.32,46478,17.94,73782.5,10.51,-17.87,-24.31,0,*4C
1536217225.55,46479,17.88,73778.0,10.49,-17.87,-24.31,0,*44
1536217226.78,46480,17.88,73776.5,10.49,-18.07,-24.51,0,*43
1536217227.98,46481,17.88,73778.8,10.47,-18.07,-24.57,0,*4A
1536217229.24,46482,17.88,73778.0,10.45,-18.31,-24.97,0,*42
1536217230.47,46483,17.88,73776.8,10.41,-18.49,-25.09,0,*4E
1536217231.7,46484,17.94,73782.3,10.41,-18.65,-25.19,0,*46
1536217232.98,46485,17.88,73776.3,10.41,-18.93,-25.55,0,*46
1536217234.24,46486,17.88,73778.5,10.37,-18.83,-25.45,0,*44
1536217235.47,46487,17.94,73782.3,10.37,-18.21,-24.77,0,*4D
1536217236.73,46488,17.88,73778.0,10.35,-18.41,-24.71,0,*40
1536217237.95,46489,17.88,73778.3,10.35,-18.21,-24.51,0,*45
1536217239.18,46490,17.94,73780.3,10.33,-18.21,-24.71,0,*49
1536217240.41,46491,17.94,73780.5,10.31,-18.25,-24.57,0,*4A
1536217241.69,46492,17.88,73776.8,10.31,-18.31,-24.71,0,*48
1536217242.95,46493,17.88,73776.5,10.31,-18.11,-24.41,0,*48
1536217244.15,46494,17.88,73776.8,10.29,-18.21,-24.61,0,*47
1536217245.4,46495,17.94,73782.0,10.29,-18.01,-24.25,0,*44
1536217246.61,46496,17.88,73778.8,10.29,-18.41,-24.61,0,*43
1536217247.84,46497,17.88,73776.8,10.29,-18.35,-24.61,0,*41
1536217249.09,46498,17.88,73778.0,10.27,-18.35,-24.51,0,*43
1536217250.35,46499,17.94,73782.8,10.27,-18.35,-24.35,0,*40
1536217251.58,46500,17.88,73778.5,10.25,-18.25,-24.21,0,*47
1536217252.8,46501,17.88,73776.8,10.25,-18.35,-24.31,0,*46
1536217254.05,46502,17.94,73780.3,10.27,-18.21,-23.99,0,*47
1536217255.28,46503,17.94,73782.3,10.27,-18.21,-24.05,0,*44
1536217256.54,46504,17.88,73776.8,10.27,-17.97,-23.59,0,*4F
1536217257.76,46505,17.88,73778.0,10.25,-18.07,-23.69,0,*49
1536217258.99,46506,17.88,73776.5,10.27,-18.21,-23.75,0,*41
1536217260.24,46507,17.88,73774.8,10.27,-18.11,-23.69,0,*4E
1536217261.47,46508,17.94,73778.8,10.25,-17.83,-23.23,0,*49
1536217262.69,46509,17.88,73778.3,10.27,-18.11,-23.59,0,*43
1536217263.92,46510,17.88,73778.8,10.27,-18.11,-23.39,0,*4D
1536217265.15,46511,17.88,73776.3,10.27,-18.21,-23.39,0,*4F
1536217266.43,46512,17.88,73778.5,10.27,-17.93,-23.23,0,*41
1536217267.63,46513,17.88,73774.8,10.29,-17.49,-22.67,0,*48
1536217268.91,46514,17.94,73780.3,10.31,-17.11,-22.21,0,*49
1536217270.16,46515,17.88,73778.0,10.31,-16.93,-21.97,0,*4D
1536217271.42,46516,17.94,73778.5,10.31,-17.41,-22.63,0,*48
1536217272.62,46517,17.88,73778.8,10.33,-17.49,-22.57,0,*44
1536217273.85,46518,17.88,73776.3,10.33,-17.93,-22.93,0,*44
1536217275.07,46519,17.94,73780.5,10.33,-17.69,-22.77,0,*4A
1536217276.33,46520,17.94,73778.5,10.35,-18.07,-23.03,0,*43
1536217277.56,46521,17.88,73778.3,10.35,-18.11,-23.09,0,*4F
1536217278.81,46522,17.88,73776.5,10.35,-17.93,-22.87,0,*4E
1536217280.06,46523,17.88,73776.5,10.35,-18.31,-23.39,0,*4C
1536217281.35,46524,17.94,73782.0,10.35,-18.31,-23.23,0,*40
1536217282.56,46525,17.88,73776.3,10.39,-18.21,-22.97,0,*42
1536217283.81,46526,17.88,73778.5,10.37,-19.13,-24.11,0,*47
1536217285.06,46527,17.94,73778.5,10.37,-19.75,-24.67,0,*47
1536217286.29,46528,17.94,73778.5,10.37,-19.75,-24.51,0,*4D
1536217287.55,46529,17.94,73778.5,10.35,-19.75,-24.71,0,*4C
1536217288.74,46530,17.94,73780.0,10.33,-19.75,-24.51,0,*40
1536217289.97,46531,17.88,73776.0,10.33,-19.37,-24.15,0,*47
1536217291.22,46532,17.88,73778.5,10.31,-19.85,-24.61,0,*4C
1536217292.45,46533,17.88,73778.8,10.29,-20.19,-25.09,0,*44
1536217293.67,46534,17.88,73778.5,10.29,-20.19,-24.93,0,*41
1536217294.89,46535,17.94,73782.5,10.29,-20.15,-24.77,0,*46
1536217296.13,46536,17.94,73776.5,10.29,-20.15,-24.67,0,*44
1536217297.38,46537,17.94,73778.5,10.25,-20.19,-24.83,0,*4F
1536217298.59,46538,17.88,73778.0,10.25,-20.05,-24.67,0,*47
1536217299.83,46539,17.94,73776.8,10.25,-19.81,-24.41,0,*44
1536217301.06,46540,17.88,73778.8,10.25,-20.09,-24.71,0,*43
1536217302.33,46541,17.94,73780.0,10.23,-20.49,-25.03,0,*44
1536217303.54,46542,17.94,73776.8,10.21,-20.73,-25.39,0,*45
1536217304.77,46543,17.88,73778.0,10.21,-21.03,-25.61,0,*4F
1536217306.0,46544,17.88,73774.5,10.17,-21.13,-25.81,0,*42
1536217307.25,46545,17.94,73780.3,10.15,-21.27,-25.87,0,*40
1536217308.54,46546,17.94,73780.8,10.15,-21.33,-25.97,0,*47
1536217309.81,46547,17.88,73776.0,10.11,-21.03,-25.49,0,*42
1536217311.04,46548,17.94,73778.0,10.11,-20.43,-24.93,0,*4E
1536217312.28,46549,17.94,73776.8,10.11,-20.59,-25.09,0,*46
1536217313.54,46550,17.94,73778.5,10.09,-20.53,-25.03,0,*47
1536217314.75,46551,17.94,73778.8,10.09,-20.59,-25.19,0,*47
1536217316.01,46552,17.94,73780.8,10.07,-20.69,-25.29,0,*4A
1536217317.21,46553,17.94,73780.3,10.05,-20.73,-25.35,0,*4F
1536217318.45,46554,17.94,73778.5,10.05,-21.13,-25.75,0,*4B
1536217319.66,46555,17.94,73780.3,10.03,-21.43,-26.03,0,*4B
1536217320.93,46556,17.94,73780.3,10.01,-21.23,-25.81,0,*45
1536217322.16,46557,17.88,73776.8,9.99,-21.27,-25.87,0,*7F
1536217323.38,46558,17.94,73778.5,9.99,-20.79,-25.39,0,*7F
1536217324.64,46559,17.94,73780.3,9.95,-20.99,-25.45,0,*77
1536217325.86,46560,17.88,73778.8,9.93,-21.17,-25.65,0,*7E
1536217327.11,46561,17.94,73776.8,9.93,-20.79,-25.19,0,*7D
1536217328.36,46562,17.88,73774.8,9.93,-20.99,-25.35,0,*7E
1536217329.58,46563,17.88,73778.0,9.89,-20.73,-25.23,0,*77
1536217330.84,46564,17.94,73778.0,9.89,-21.23,-25.65,0,*76
1536217332.07,46565,17.94,73782.0,9.89,-21.17,-25.49,0,*7E
1536217333.33,46566,17.94,73780.0,9.89,-21.03,-25.35,0,*73
1536217334.52,46567,17.94,73780.0,9.87,-20.73,-24.97,0,*73
1536217335.77,46568,17.88,73778.8,9.85,-20.93,-25.29,0,*74
1536217336.99,46569,17.94,73776.8,9.85,-21.17,-25.35,0,*75
1536217338.22,46570,17.88,73778.5,9.85,-21.47,-25.65,0,*7D
1536217339.45,46571,17.94,73780.8,9.83,-22.11,-26.33,0,*7A
1536217340.66,46572,17.94,73778.3,9.79,-21.93,-26.03,0,*76
1536217341.89,46573,17.94,73776.5,9.79,-21.53,-25.39,0,*71
1536217343.09,46574,17.94,73778.8,9.79,-21.47,-25.35,0,*7F
1536217344.34,46575,17.94,73778.0,9.79,-21.23,-25.03,0,*79
1536217345.59,46576,17.88,73778.5,9.79,-21.33,-25.03,0,*7B
1536217346.87,46577,17.94,73780.0,9.77,-21.87,-25.45,0,*79
1536217348.11,46578,17.88,73776.3,9.77,-21.57,-24.93,0,*71
1536217349.38,46579,17.94,73780.3,9.77,-21.53,-25.03,0,*7C
1536217350.66,46580,17.88,73778.3,9.77,-21.57,-25.03,0,*7E
1536217351.88,46581,17.94,73776.8,9.71,-21.57,-24.77,0,*7B
1536217353.09,46582,17.94,73778.3,9.71,-20.99,-24.35,0,*7D
1536217354.29,46583,17.94,73778.5,9.71,-21.09,-24.31,0,*70
1536217355.54,46584,17.88,73778.5,9.73,-21.27,-24.51,0,*7F
1536217356.79,46585,17.94,73782.0,9.73,-21.27,-24.31,0,*78
1536217358.04,46586,17.88,73776.0,9.73,-21.33,-24.47,0,*7F
1536217359.26,46587,17.94,73780.0,9.71,-21.73,-24.67,0,*7A
1536217360.54,46588,17.88,73778.3,9.73,-21.87,-24.83,0,*76
1536217361.76,46589,17.94,73776.8,9.73,-22.37,-25.35,0,*73
1536217362.99,46590,17.94,73776.8,9.71,-22.73,-25.61,0,*78
1536217364.22,46591,17.94,73778.3,9.69,-22.63,-25.49,0,*7B
1536217365.42,46592,17.88,73776.3,9.67,-22.57,-25.35,0,*7A
1536217366.67,46593,17.94,73778.8,9.69,-22.11,-24.71,0,*76
1536217367.88,46594,17.88,73774.0,9.67,-22.07,-24.67,0,*7F
1536217369.11,46595,17.88,73778.0,9.67,-22.77,-25.35,0,*7F
1536217370.33,46596,17.94,73778.3,9.67,-23.03,-25.35,0,*7E
1536217371.53,46597,17.88,73778.5,9.63,-22.67,-24.77,0,*7F
1536217372.75,46598,17.88,73778.3,9.63,-22.73,-24.61,0,*72
1536217373.99,46599,17.94,73780.3,9.61,-22.67,-24.11,0,*73
1536217375.24,46600,17.88,73778.3,9.61,-22.37,-23.53,0,*74
1536217376.45,46601,17.88,73776.3,9.59,-22.57,-23.75,0,*7C
1536217377.67,46602,17.94,73778.8,9.59,-22.63,-23.85,0,*77
1536217378.92,46603,17.94,73778.0,9.57,-22.47,-23.79,0,*7D
1536217380.16,46604,17.94,73778.0,9.57,-22.27,-23.65,0,*71
1536217381.35,46605,17.94,73778.8,9.55,-22.27,-23.79,0,*7F
1536217382.6,46606,17.94,73778.5,9.55,-22.31,-23.95,0,*79
1536217383.79,46607,17.94,73778.5,9.55,-22.67,-24.35,0,*76
1536217385.01,46608,17.88,73776.3,9.55,-22.77,-24.57,0,*7C
1536217386.24,46609,17.88,73778.0,9.57,-22.93,-24.77,0,*77
1536217387.44,46610,17.88,73778.5,9.55,-23.09,-25.09,0,*77
1536217388.66,46611,17.94,73778.5,9.53,-22.87,-24.97,0,*71
1536217389.91,46612,17.94,73776.8,9.49,-22.77,-25.19,0,*71
1536217391.16,46613,17.94,73778.5,9.49,-22.73,-25.19,0,*74
1536217392.39,46614,17.94,73778.0,9.49,-22.57,-25.13,0,*7F
1536217393.61,46615,17.94,73778.8,9.47,-21.93,-24.87,0,*77
1536217394.89,46616,17.94,73776.0,9.45,-22.17,-25.03,0,*74
1536217396.11,46617,17.88,73774.5,9.47,-21.77,-24.83,0,*7B
1536217397.34,46618,17.88,73776.8,9.47,-21.77,-24.87,0,*70
1536217398.56,46619,17.94,73782.0,9.45,-21.73,-24.93,0,*72
1536217399.79,46620,17.94,73776.3,9.45,-22.11,-25.35,0,*72
1536217401.02,46621,17.94,73778.5,9.43,-21.97,-25.19,0,*76
1536217402.25,46622,17.94,73778.0,9.43,-21.87,-25.23,0,*7D
1536217403.47,46623,17.94,73776.3,9.41,-21.63,-24.97,0,*7A
1536217404.72,46624,17.88,73776.0,9.41,-21.53,-24.93,0,*7A
1536217405.98,46625,17.94,73776.3,9.41,-21.77,-25.29,0,*7D
1536217407.2,46626,17.94,73782.5,9.41,-21.39,-24.97,0,*70
1536217408.45,46627,17.94,73780.8,9.39,-21.47,-25.29,0,*73
1536217409.69,46628,17.94,73778.5,9.39,-21.27,-25.13,0,*73
1536217410.94,46629,17.94,73776.0,9.39,-20.83,-24.61,0,*79
1536217412.15,46630,17.88,73776.8,9.39,-20.69,-24.51,0,*76
1536217413.37,46631,17.88,73776.0,9.39,-20.39,-24.31,0,*74
1536217414.59,46632,17.88,73778.0,9.37,-20.35,-24.31,0,*75
1536217415.82,46633,17.94,73776.8,9.39,-20.35,-24.35,0,*7E
1536217417.01,46634,17.94,73780.3,9.37,-20.39,-24.61,0,*7A
1536217418.21,46635,17.94,73780.3,9.37,-20.25,-24.51,0,*75
1536217419.39,46636,17.88,73776.0,9.37,-20.05,-24.35,0,*76
1536217420.6,46637,17.94,73782.8,9.37,-19.81,-24.05,0,*72
1536217421.85,46638,17.88,73778.3,9.37,-19.61,-23.85,0,*7C
1536217423.07,46639,17.94,73776.8,9.37,-18.99,-23.19,0,*7E
1536217424.33,46640,17.94,73780.3,9.39,-19.27,-23.39,0,*78
1536217425.6,46641,17.94,73780.0,9.39,-19.27,-23.33,0,*73
1536217426.85,46642,17.94,73776.3,9.39,-19.03,-23.19,0,*7E
1536217428.08,46643,17.94,73782.0,9.43,-18.69,-22.73,0,*72
1536217429.31,46644,17.88,73776.3,9.43,-18.25,-22.31,0,*7B
1536217430.54,46645,17.88,73778.5,9.43,-18.41,-22.31,0,*78
1536217431.74,46646,17.94,73778.8,9.47,-18.73,-22.57,0,*7E
1536217432.95,46647,17.94,73780.3,9.47,-18.59,-22.37,0,*71
1536217434.17,46648,17.94,73778.0,9.47,-18.55,-22.27,0,*73
1536217435.4,46649,17.88,73776.3,9.53,-19.07,-22.53,0,*72
1536217436.62,46650,17.94,73776.8,9.53,-19.47,-22.87,0,*77
1536217437.83,46651,17.94,73780.0,9.55,-19.71,-23.09,0,*72
1536217439.05,46652,17.94,73776.0,9.55,-19.85,-23.09,0,*7A
1536217440.25,46653,17.94,73776.8,9.55,-19.95,-23.13,0,*71
1536217441.45,46654,17.94,73776.0,9.55,-19.99,-22.97,0,*77
1536217442.65,46655,17.94,73780.0,9.55,-19.95,-22.83,0,*7F
1536217443.87,46656,17.94,73780.3,9.57,-19.95,-22.83,0,*7E
1536217445.12,46657,17.88,73776.3,9.57,-20.15,-22.97,0,*78
1536217446.32,46658,17.94,73778.3,9.59,-20.05,-22.63,0,*73
1536217447.51,46659,17.94,73776.3,9.59,-19.91,-22.57,0,*72
1536217448.77,46660,17.94,73776.8,9.61,-19.31,-22.03,0,*78
1536217450.02,46661,17.88,73778.5,9.61,-19.41,-22.03,0,*7E
1536217451.27,46662,17.94,73778.0,9.61,-19.85,-22.37,0,*72
1536217452.48,46663,17.88,73778.3,9.63,-20.15,-22.57,0,*74
1536217453.74,46664,17.94,73778.5,9.65,-20.43,-22.77,0,*74
1536217455.02,46665,17.94,73778.0,9.65,-21.03,-23.19,0,*79
1536217456.29,46666,17.94,73776.5,9.65,-21.27,-23.29,0,*7F
1536217457.55,46667,17.88,73776.8,9.65,-21.53,-23.43,0,*71
1536217458.77,46668,17.94,73780.0,9.63,-21.63,-23.49,0,*71
1536217459.97,46669,17.94,73778.0,9.63,-21.43,-23.13,0,*7D
1536217461.19,46670,17.94,73778.5,9.63,-21.47,-23.19,0,*7B
1536217462.41,46671,17.88,73776.8,9.63,-20.99,-22.67,0,*70
1536217463.67,46672,17.94,73776.0,9.65,-21.03,-22.63,0,*73
1536217464.9,46673,17.88,73776.3,9.65,-20.59,-22.03,0,*7A
1536217466.18,46674,17.94,73780.8,9.65,-19.85,-21.23,0,*77
1536217467.44,46675,17.94,73776.8,9.65,-19.17,-20.19,0,*75
1536217468.66,46676,17.88,73776.5,9.67,-18.89,-19.91,0,*78
1536217469.88,46677,17.94,73778.0,9.69,-19.47,-20.29,0,*7D
1536217471.13,46678,17.94,73776.3,9.69,-18.99,-19.65,0,*72
1536217472.38,46679,17.94,73776.0,9.73,-18.93,-19.47,0,*72
1536217473.63,46680,17.94,73776.0,9.77,-18.59,-19.13,0,*77
1536217474.86,46681,17.94,73782.5,9.79,-17.69,-18.31,0,*75
1536217476.08,46682,17.94,73780.8,9.79,-17.41,-18.17,0,*78
1536217477.31,46683,17.88,73774.5,9.83,-17.93,-18.65,0,*76
1536217478.53,46684,17.94,73780.0,9.83,-17.59,-18.49,0,*79
1536217479.73,46685,17.94,73778.5,9.87,-17.73,-18.69,0,*76
1536217480.96,46686,17.94,73776.5,9.87,-17.41,-18.45,0,*7A
1536217482.21,46687,17.94,73778.8,9.89,-17.83,-18.93,0,*70
1536217483.46,46688,17.94,73776.0,9.93,-17.93,-19.17,0,*78
1536217484.7,46689,17.94,73776.0,9.91,-17.79,-18.93,0,*72
1536217485.91,46690,17.94,73776.8,9.95,-17.35,-18.69,0,*73
1536217487.11,46691,17.94,73780.3,9.95,-16.89,-18.21,0,*78
1536217488.36,46692,17.88,73778.8,9.99,-17.45,-18.93,0,*7F
1536217489.61,46693,17.88,73774.5,10.03,-17.79,-19.27,0,*44
1536217490.85,46694,17.94,73776.5,10.07,-17.87,-19.37,0,*47
1536217492.08,46695,17.94,73780.5,10.05,-17.93,-19.47,0,*46
1536217493.35,46696,17.94,73780.5,10.07,-18.31,-20.05,0,*4C
1536217494.63,46697,17.94,73778.5,10.07,-18.35,-20.19,0,*44
1536217495.86,46698,17.94,73776.0,10.09,-17.73,-19.85,0,*47
1536217497.09,46699,17.94,73778.8,10.09,-17.41,-19.71,0,*4C
1536217498.38,46700,17.94,73776.8,10.07,-16.69,-19.57,0,*4C
1536217499.61,46701,17.94,73780.3,10.09,-15.43,-18.65,0,*48
1536217500.81,46702,17.94,73776.3,10.13,-16.03,-19.47,0,*46
1536217502.05,46703,17.94,73776.8,10.13,-16.17,-20.05,0,*4E
1536217503.3,46704,17.94,73780.8,10.13,-17.21,-21.33,0,*49
1536217504.53,46705,17.94,73780.8,10.13,-17.35,-21.53,0,*4B
1536217505.79,46706,17.94,73780.0,10.11,-17.07,-21.47,0,*4E
1536217507.06,46707,17.94,73780.3,10.11,-16.59,-21.23,0,*47
1536217508.32,46708,17.94,73778.5,10.11,-16.65,-21.73,0,*42
1536217509.55,46709,17.94,73776.8,10.13,-16.59,-21.83,0,*41
1536217510.78,46710,17.88,73778.5,10.09,-16.59,-21.83,0,*42
1536217512.07,46711,17.94,73776.3,10.07,-16.13,-20.99,0,*49
1536217513.36,46712,17.94,73780.0,10.07,-16.27,-21.23,0,*4D
1536217514.62,46713,17.94,73778.5,10.07,-16.69,-22.07,0,*43
1536217515.89,46714,17.94,73778.5,10.07,-17.45,-23.13,0,*4F
1536217517.14,46715,17.94,73780.0,10.07,-17.79,-23.43,0,*44
1536217518.38,46716,17.94,73778.8,10.05,-17.83,-23.53,0,*41
1536217519.58,46717,17.94,73782.5,10.05,-18.11,-23.89,0,*43
1536217520.83,46718,17.94,73780.8,10.01,-18.41,-24.11,0,*4B
1536217522.05,46719,17.94,73776.5,9.99,-18.73,-24.41,0,*77
1536217523.25,46720,17.94,73778.3,9.99,-18.99,-24.61,0,*7B
1536217524.48,46721,17.94,73776.8,9.93,-18.83,-24.35,0,*7A
1536217525.69,46722,17.94,73778.3,9.95,-19.13,-24.47,0,*72
1536217526.89,46723,17.94,73780.0,9.91,-19.17,-24.51,0,*74
1536217528.11,46724,17.94,73778.8,9.89,-19.07,-24.35,0,*79
1536217529.38,46725,17.94,73776.8,9.89,-18.89,-24.11,0,*79
1536217530.6,46726,17.94,73776.8,9.87,-19.41,-24.47,0,*72
1536217531.83,46727,17.88,73776.0,9.85,-19.47,-24.61,0,*73
1536217533.06,46728,17.94,73780.8,9.83,-19.31,-24.47,0,*7F
1536217534.31,46729,17.88,73776.3,9.85,-19.27,-24.35,0,*7A
1536217535.56,46730,17.94,73776.8,9.81,-18.73,-23.85,0,*7A
1536217536.81,46731,17.88,73776.8,9.83,-18.35,-23.49,0,*7B
1536217538.06,46732,17.88,73778.3,9.83,-18.59,-23.65,0,*7C
1536217539.28,46733,17.88,73778.3,9.81,-18.25,-23.39,0,*7D
1536217540.48,46734,17.94,73780.0,9.79,-18.17,-23.43,0,*71
1536217541.71,46735,17.88,73776.0,9.79,-18.59,-23.75,0,*7F
1536217542.93,46736,17.94,73778.5,9.79,-18.41,-23.69,0,*78
1536217544.18,46737,17.94,73778.8,9.77,-18.01,-23.13,0,*7E
1536217545.4,46738,17.88,73776.0,9.77,-17.83,-22.97,0,*79
1536217546.62,46739,17.94,73776.5,9.77,-17.83,-22.83,0,*7D
1536217547.83,46740,17.94,73778.5,9.79,-17.83,-22.93,0,*7C
1536217549.06,46741,17.94,73776.5,9.79,-17.93,-22.97,0,*78
1536217550.28,46742,17.88,73776.3,9.79,-18.41,-23.29,0,*7F
1536217551.5,46743,17.94,73776.5,9.79,-18.45,-23.29,0,*7A
1536217552.7,46744,17.94,73778.5,9.79,-18.25,-23.13,0,*72
1536217553.92,46745,17.88,73778.5,9.77,-18.45,-23.13,0,*7B
1536217555.14,46746,17.94,73778.0,9.77,-18.17,-22.83,0,*77
1536217556.37,46747,17.94,73776.8,9.77,-18.41,-22.93,0,*74
1536217557.62,46748,17.88,73776.8,9.77,-18.65,-23.03,0,*75
1536217558.87,46749,17.94,73776.0,9.77,-19.37,-23.65,0,*72
1536217560.11,46750,17.94,73780.0,9.77,-19.71,-24.11,0,*7C
1536217561.35,46751,17.94,73778.0,9.77,-19.85,-24.05,0,*73
1536217562.6,46752,17.94,73780.3,9.73,-19.75,-23.85,0,*74
1536217563.83,46753,17.88,73776.0,9.73,-19.99,-24.35,0,*7B
1536217565.09,46754,17.94,73780.0,9.69,-19.81,-24.21,0,*7B
1536217566.31,46755,17.94,73778.8,9.71,-19.75,-24.15,0,*7F
1536217567.53,46756,17.94,73776.8,9.67,-20.25,-24.71,0,*76
1536217568.75,46757,17.94,73780.0,9.67,-19.81,-24.05,0,*70
1536217569.99,46758,17.94,73776.5,9.65,-19.95,-24.11,0,*7D
1536217571.23,46759,17.94,73780.3,9.65,-20.09,-24.11,0,*73
1536217572.45,46760,17.94,73780.8,9.63,-19.91,-23.95,0,*7F
1536217573.71,46761,17.94,73778.8,9.61,-19.85,-23.95,0,*79
1536217574.98,46762,17.94,73778.0,9.61,-20.15,-24.11,0,*72
1536217576.22,46763,17.94,73780.8,9.61,-20.05,-24.11,0,*72
1536217577.43,46764,17.94,73780.3,9.59,-20.05,-24.15,0,*7A
1536217578.65,46765,17.94,73778.0,9.59,-19.95,-23.99,0,*7B
1536217579.87,46766,17.94,73780.8,9.59,-19.95,-23.99,0,*78
1536217581.09,46767,17.94,73776.8,9.55,-19.71,-24.11,0,*78
1536217582.36,46768,17.94,73780.0,9.57,-19.65,-24.11,0,*70
1536217583.64,46769,17.94,73778.5,9.57,-19.57,-24.25,0,*77
1536217584.86,46770,17.94,73782.0,9.55,-19.31,-24.35,0,*7C
1536217586.11,46771,17.94,73780.8,9.55,-18.89,-24.21,0,*7A
1536217587.34,46772,17.94,73778.8,9.55,-18.31,-24.05,0,*7C
1536217588.61,46773,17.94,73780.3,9.49,-17.93,-23.85,0,*78
1536217589.85,46774,17.94,73780.8,9.49,-17.69,-23.99,0,*77
1536217591.05,46775,17.94,73780.8,9.47,-17.35,-23.89,0,*70
1536217592.28,46776,17.94,73782.5,9.45,-16.97,-23.75,0,*7B
1536217593.5,46777,17.94,73782.0,9.43,-17.11,-23.79,0,*7F
1536217594.75,46778,17.94,73778.8,9.43,-17.25,-24.11,0,*7E
1536217596.02,46779,17.94,73782.5,9.41,-17.25,-24.15,0,*79
1536217597.27,46780,17.94,73776.5,9.41,-16.37,-23.53,0,*78
1536217598.49,46781,17.88,73778.5,9.39,-15.75,-23.09,0,*7C
1536217599.74,46782,17.94,73780.3,9.37,-15.43,-23.23,0,*7C
1536217600.94,46783,17.88,73778.5,9.37,-14.89,-22.63,0,*7F
1536217602.16,46784,17.88,73776.3,9.37,-14.37,-22.21,0,*7B
1536217603.38,46785,17.94,73778.0,9.35,-14.61,-22.67,0,*79
1536217604.66,46786,17.88,73776.3,9.35,-14.47,-22.77,0,*7F
1536217605.89,46787,17.94,73780.8,9.33,-14.01,-22.63,0,*7F
1536217607.11,46788,17.94,73778.0,9.35,-13.47,-22.57,0,*74
1536217608.31,46789,17.94,73778.5,9.33,-12.97,-22.27,0,*78
1536217609.53,46790,17.94,73780.0,9.33,-12.83,-22.57,0,*72
1536217610.78,46791,17.94,73776.0,9.31,-12.75,-22.67,0,*7B
1536217612.03,46792,17.88,73778.3,9.27,-12.29,-22.21,0,*74
1536217613.31,46793,17.94,73776.5,9.27,-11.81,-21.83,0,*7F
1536217614.58,46794,17.94,73776.5,9.27,-11.29,-21.57,0,*73
1536217615.83,46795,17.94,73782.0,9.27,-11.01,-21.33,0,*7A
1536217617.06,46796,17.94,73778.5,9.25,-10.57,-20.99,0,*78
1536217618.28,46797,17.88,73778.5,9.23,-10.45,-21.09,0,*74
1536217619.53,46798,17.94,73778.3,9.23,-10.19,-21.03,0,*78
1536217620.75,46799,17.94,73780.8,9.23,-10.09,-21.09,0,*72
1536217621.97,46800,17.94,73780.8,9.21,-10.31,-21.53,0,*7B
1536217623.2,46801,17.94,73778.0,9.21,-10.79,-22.11,0,*73
1536217624.42,46802,17.88,73778.8,9.19,-10.53,-22.03,0,*70
1536217625.66,46803,17.94,73778.8,9.19,-10.01,-21.53,0,*70
1536217626.89,46804,17.88,73778.5,9.15,-9.89,-21.33,0,*45
1536217628.11,46805,17.94,73780.8,9.15,-9.75,-21.13,0,*45
1536217629.33,46806,17.94,73780.3,9.15,-9.79,-21.13,0,*4A
1536217630.55,46807,17.94,73780.3,9.15,-10.15,-21.47,0,*78
1536217631.78,46808,17.94,73780.8,9.15,-10.19,-21.47,0,*7B
1536217633.0,46809,17.94,73776.5,9.15,-10.05,-21.17,0,*72
1536217634.22,46810,17.88,73778.3,9.11,-10.09,-20.93,0,*7F
1536217635.44,46811,17.94,73782.0,9.13,-10.05,-20.83,0,*71
1536217636.67,46812,17.88,73778.5,9.13,-10.19,-20.83,0,*7F
1536217637.9,46813,17.94,73782.0,9.13,-10.23,-20.83,0,*77
1536217639.13,46814,17.94,73782.0,9.11,-10.27,-20.73,0,*79
1536217640.4,46815,17.94,73782.3,9.11,-10.41,-20.89,0,*7D
1536217641.68,46816,17.94,73778.3,9.11,-10.71,-21.23,0,*7C
1536217642.96,46817,17.94,73780.3,9.11,-11.51,-21.87,0,*70
1536217644.19,46818,17.88,73776.8,9.11,-11.45,-21.73,0,*71
1536217645.47,46819,17.94,73778.5,9.11,-12.07,-22.21,0,*71
1536217646.7,46820,17.94,73780.0,9.11,-12.43,-22.53,0,*7E
1536217647.94,46821,17.94,73780.8,9.05,-12.83,-22.87,0,*7F
1536217649.18,46822,17.88,73776.3,9.05,-12.71,-22.41,0,*7B
1536217650.44,46823,17.94,73782.0,9.05,-12.57,-22.21,0,*78
1536217651.68,46824,17.94,73780.3,9.05,-12.79,-22.37,0,*74
1536217652.91,46825,17.88,73778.0,9.05,-13.19,-22.67,0,*77
1536217654.15,46826,17.94,73780.3,9.05,-13.37,-22.67,0,*78
1536217655.4,46827,17.94,73780.8,9.05,-14.05,-23.09,0,*76
1536217656.64,46828,17.94,73780.8,9.03,-14.15,-23.23,0,*76
1536217657.85,46829,17.94,73776.8,9.03,-14.15,-23.09,0,*7F
1536217659.08,46830,17.94,73778.0,9.03,-14.15,-23.03,0,*7D
1536217660.27,46831,17.94,73780.0,9.03,-14.61,-23.39,0,*76
1536217661.48,46832,17.94,73782.0,9.03,-14.75,-23.59,0,*76
1536217662.67,46833,17.88,73776.8,9.03,-15.15,-23.89,0,*7D
1536217663.89,46834,17.94,73780.5,9.05,-15.15,-23.75,0,*7F
1536217665.16,46835,17.94,73780.3,9.01,-15.43,-23.99,0,*7B
1536217666.38,46836,17.94,73782.0,9.01,-15.49,-23.89,0,*73
1536217667.6,46837,17.94,73780.8,9.01,-15.29,-23.39,0,*7F
1536217668.83,46838,17.88,73780.3,9.01,-15.15,-23.09,0,*7C
1536217670.09,46839,17.88,73778.3,9.01,-15.15,-23.03,0,*77
1536217671.34,46840,17.88,73778.3,9.01,-15.49,-23.23,0,*72
1536217672.56,46841,17.94,73782.0,9.03,-15.49,-23.03,0,*73
1536217673.78,46842,17.88,73776.5,9.03,-15.25,-22.47,0,*7B
1536217675.0,46843,17.94,73780.8,9.05,-15.29,-22.41,0,*76
1536217676.24,46844,17.94,73780.3,9.05,-15.25,-22.21,0,*7B
1536217677.49,46845,17.94,73780.8,9.09,-15.39,-22.21,0,*7B
1536217678.72,46846,17.94,73780.3,9.09,-15.67,-22.31,0,*72
1536217679.92,46847,17.94,73778.8,9.09,-15.95,-22.41,0,*79
1536217681.15,46848,17.94,73782.3,9.09,-16.37,-22.77,0,*78
1536217682.37,46849,17.88,73778.5,9.13,-16.45,-22.77,0,*77
1536217683.63,46850,17.88,73780.0,9.13,-17.03,-23.23,0,*7C
1536217684.89,46851,17.94,73780.5,9.11,-17.41,-23.43,0,*7F
1536217686.14,46852,17.94,73780.3,9.13,-17.79,-23.85,0,*7F
1536217687.37,46853,17.94,73780.0,9.13,-18.01,-24.05,0,*71
1536217688.62,46854,17.88,73778.8,9.11,-18.01,-23.79,0,*78
1536217689.85,46855,17.94,73782.8,9.11,-18.07,-23.89,0,*70
1536217691.13,46856,17.94,73778.5,9.11,-18.31,-23.99,0,*77
1536217692.37,46857,17.94,73782.0,9.11,-18.65,-24.15,0,*74
1536217693.62,46858,17.88,73778.0,9.09,-18.59,-24.11,0,*79
1536217694.85,46859,17.94,73780.5,9.09,-18.93,-24.31,0,*7C
1536217696.11,46860,17.94,73782.3,9.09,-19.23,-24.71,0,*78
1536217697.36,46861,17.94,73782.0,9.05,-19.27,-24.61,0,*70
1536217698.59,46862,17.94,73782.5,9.05,-19.13,-24.35,0,*75
1536217699.83,46863,17.94,73780.5,9.05,-19.85,-25.13,0,*7E